Time,TemperatureF,DewpointF,PressureIn,WindDirection,WindDirectionDegrees,WindSpeedMPH,WindSpeedGustMPH,Humidity,HourlyPrecipIn,Conditions,Clouds,dailyrainin,SoftwareType,DateUTC
2013-08-28 00:01:00,67.6,67.3,29.94,South,171,0.0,0.0,99,0.00,,,0.11,Wunderground v.1.15,2013-08-28 04:01:00,
2013-08-28 00:02:00,67.6,67.3,29.93,South,171,0.0,0.0,99,0.00,,,0.11,Wunderground v.1.15,2013-08-28 04:02:00,
2013-08-28 00:05:00,67.7,67.4,29.94,South,171,0.0,0.0,99,0.00,,,0.11,Wunderground v.1.15,2013-08-28 04:05:00,
2013-08-28 00:06:00,67.6,67.3,29.94,South,171,0.0,0.0,99,0.00,,,0.11,Wunderground v.1.15,2013-08-28 04:06:00,
2013-08-28 00:08:00,67.6,67.3,29.94,South,171,0.0,0.0,99,0.00,,,0.11,Wunderground v.1.15,2013-08-28 04:08:00,
2013-08-28 00:13:00,67.7,67.4,29.93,South,171,0.0,0.0,99,0.00,,,0.11,Wunderground v.1.15,2013-08-28 04:13:00,
2013-08-28 00:19:00,67.7,67.4,29.93,South,171,0.0,0.0,99,0.00,,,0.11,Wunderground v.1.15,2013-08-28 04:19:00,
2013-08-28 00:25:00,67.8,67.5,29.93,South,171,0.0,0.0,99,0.00,,,0.11,Wunderground v.1.15,2013-08-28 04:25:00,
2013-08-28 00:31:00,67.8,67.5,29.93,South,171,0.0,0.0,99,0.00,,,0.11,Wunderground v.1.15,2013-08-28 04:31:00,
2013-08-28 00:37:00,67.9,67.6,29.93,South,171,0.0,0.0,99,0.00,,,0.11,Wunderground v.1.15,2013-08-28 04:37:00,
2013-08-28 00:43:00,67.9,67.6,29.92,South,171,0.0,0.0,99,0.00,,,0.11,Wunderground v.1.15,2013-08-28 04:43:00,
2013-08-28 00:49:00,67.9,67.6,29.92,South,171,0.0,0.0,99,0.00,,,0.11,Wunderground v.1.15,2013-08-28 04:49:00,
2013-08-28 00:55:00,67.9,67.6,29.92,South,171,0.0,0.0,99,0.00,,,0.11,Wunderground v.1.15,2013-08-28 04:55:00,
2013-08-28 01:01:00,67.9,67.6,29.91,South,171,0.0,0.0,99,0.00,,,0.00,Wunderground v.1.15,2013-08-28 05:01:00,
2013-08-28 01:06:00,68.0,67.7,29.92,South,171,0.0,0.0,99,0.00,,,0.00,Wunderground v.1.15,2013-08-28 05:06:00,
2013-08-28 01:12:00,68.0,67.7,29.92,South,171,0.0,0.0,99,0.00,,,0.00,Wunderground v.1.15,2013-08-28 05:12:00,
2013-08-28 01:18:00,68.0,67.7,29.92,South,171,0.0,0.0,99,0.00,,,0.00,Wunderground v.1.15,2013-08-28 05:18:00,
2013-08-28 01:23:00,68.1,67.8,29.92,South,171,0.0,0.0,99,0.00,,,0.00,Wunderground v.1.15,2013-08-28 05:23:00,
2013-08-28 01:29:00,68.1,67.8,29.91,South,171,0.0,0.0,99,0.00,,,0.00,Wunderground v.1.15,2013-08-28 05:29:00,
2013-08-28 01:35:00,68.3,68.0,29.91,South,171,0.0,0.0,99,0.00,,,0.00,Wunderground v.1.15,2013-08-28 05:35:00,
2013-08-28 01:41:00,68.4,68.1,29.91,South,171,0.0,0.0,99,0.00,,,0.00,Wunderground v.1.15,2013-08-28 05:41:00,
2013-08-28 01:47:00,68.4,68.1,29.90,South,171,0.0,0.0,99,0.00,,,0.00,Wunderground v.1.15,2013-08-28 05:47:00,
2013-08-28 01:53:00,68.4,68.1,29.90,South,171,0.0,0.0,99,0.00,,,0.00,Wunderground v.1.15,2013-08-28 05:53:00,
2013-08-28 01:59:00,68.6,68.3,29.89,South,171,0.0,0.0,99,0.00,,,0.00,Wunderground v.1.15,2013-08-28 05:59:00,
2013-08-28 02:04:00,68.6,68.3,29.89,South,171,0.0,0.0,99,0.00,,,0.00,Wunderground v.1.15,2013-08-28 06:04:00,
2013-08-28 02:10:00,68.6,68.3,29.89,South,171,0.0,0.0,99,0.00,,,0.00,Wunderground v.1.15,2013-08-28 06:10:00,
2013-08-28 02:15:00,68.7,68.4,29.89,South,171,0.0,0.0,99,0.00,,,0.00,Wunderground v.1.15,2013-08-28 06:15:00,
2013-08-28 02:21:00,68.8,68.5,29.89,South,171,0.0,0.0,99,0.00,,,0.00,Wunderground v.1.15,2013-08-28 06:21:00,
2013-08-28 02:26:00,68.8,68.5,29.88,South,171,0.0,0.0,99,0.00,,,0.00,Wunderground v.1.15,2013-08-28 06:26:00,
2013-08-28 02:32:00,68.9,68.6,29.88,South,171,0.0,0.0,99,0.00,,,0.00,Wunderground v.1.15,2013-08-28 06:32:00,
2013-08-28 02:38:00,69.1,68.8,29.88,South,171,0.0,0.0,99,0.00,,,0.00,Wunderground v.1.15,2013-08-28 06:38:00,
2013-08-28 02:44:00,69.1,68.8,29.87,South,171,0.0,0.0,99,0.00,,,0.00,Wunderground v.1.15,2013-08-28 06:44:00,
2013-08-28 02:50:00,69.2,68.9,29.87,South,171,0.0,0.0,99,0.00,,,0.00,Wunderground v.1.15,2013-08-28 06:50:00,
2013-08-28 02:56:00,69.5,69.2,29.87,South,171,0.0,1.0,99,0.00,,,0.00,Wunderground v.1.15,2013-08-28 06:56:00,
2013-08-28 03:01:00,70.0,69.7,29.87,South,169,0.0,0.0,99,0.00,,,0.00,Wunderground v.1.15,2013-08-28 07:01:00,
2013-08-28 03:06:00,70.2,69.9,29.87,SSE,159,0.0,0.0,99,0.00,,,0.00,Wunderground v.1.15,2013-08-28 07:06:00,
2013-08-28 03:12:00,70.5,70.2,29.88,SE,129,0.0,0.0,99,0.00,,,0.00,Wunderground v.1.15,2013-08-28 07:12:00,
2013-08-28 03:18:00,70.5,70.2,29.88,SE,129,0.0,0.0,99,0.00,,,0.00,Wunderground v.1.15,2013-08-28 07:18:00,
2013-08-28 03:24:00,70.6,70.3,29.88,SE,129,0.0,0.0,99,0.00,,,0.00,Wunderground v.1.15,2013-08-28 07:24:00,
2013-08-28 03:30:00,70.5,70.2,29.88,SE,129,0.0,0.0,99,0.00,,,0.00,Wunderground v.1.15,2013-08-28 07:30:00,
2013-08-28 03:35:00,70.6,70.3,29.88,SE,129,0.0,1.0,99,0.00,,,0.00,Wunderground v.1.15,2013-08-28 07:35:00,
2013-08-28 03:41:00,70.7,70.4,29.88,East,80,0.0,0.0,99,0.00,,,0.01,Wunderground v.1.15,2013-08-28 07:41:00,
2013-08-28 03:47:00,70.9,70.6,29.88,SSE,158,1.0,3.0,99,0.00,,,0.01,Wunderground v.1.15,2013-08-28 07:47:00,
2013-08-28 03:53:00,71.2,70.9,29.88,SSE,153,1.0,1.0,99,0.00,,,0.01,Wunderground v.1.15,2013-08-28 07:53:00,
2013-08-28 03:58:00,71.2,70.9,29.88,SSE,154,1.0,2.0,99,0.00,,,0.01,Wunderground v.1.15,2013-08-28 07:58:00,
2013-08-28 04:04:00,71.2,70.9,29.88,SE,130,1.0,4.0,99,0.00,,,0.01,Wunderground v.1.15,2013-08-28 08:04:00,
2013-08-28 04:10:00,71.2,70.9,29.88,SE,130,1.0,1.0,99,0.00,,,0.01,Wunderground v.1.15,2013-08-28 08:10:00,
2013-08-28 04:15:00,71.2,70.9,29.87,SE,133,1.0,4.0,99,0.00,,,0.01,Wunderground v.1.15,2013-08-28 08:15:00,
2013-08-28 04:21:00,71.2,70.9,29.87,SE,140,1.0,4.0,99,0.00,,,0.01,Wunderground v.1.15,2013-08-28 08:21:00,
2013-08-28 04:26:00,71.2,70.9,29.87,SE,142,1.0,4.0,99,0.00,,,0.01,Wunderground v.1.15,2013-08-28 08:26:00,
2013-08-28 04:32:00,-999.9,-99.9,29.87,SE,136,2.0,4.0,99,0.00,,,0.01,Wunderground v.1.15,2013-08-28 08:32:00,
2013-08-28 04:38:00,71.0,70.7,29.87,SE,144,2.0,4.0,99,0.00,,,0.01,Wunderground v.1.15,2013-08-28 08:38:00,
2013-08-28 04:44:00,-999.9,-99.9,29.87,SE,144,1.0,4.0,99,0.00,,,0.01,Wunderground v.1.15,2013-08-28 08:44:00,
2013-08-28 04:50:00,70.8,70.5,29.87,SE,144,1.0,4.0,99,0.00,,,0.01,Wunderground v.1.15,2013-08-28 08:50:00,
2013-08-28 04:56:00,70.7,70.4,29.87,SE,144,1.0,4.0,99,0.00,,,0.01,Wunderground v.1.15,2013-08-28 08:56:00,
2013-08-28 05:01:00,70.7,70.4,29.87,ESE,122,1.0,4.0,99,0.00,,,0.01,Wunderground v.1.15,2013-08-28 09:01:00,
2013-08-28 05:06:00,70.5,70.2,29.87,ESE,118,1.0,5.0,99,0.00,,,0.01,Wunderground v.1.15,2013-08-28 09:06:00,
2013-08-28 05:12:00,70.4,70.1,29.87,South,175,1.0,4.0,99,0.00,,,0.01,Wunderground v.1.15,2013-08-28 09:12:00,
2013-08-28 05:18:00,70.3,70.0,29.87,NE,34,1.0,4.0,99,0.00,,,0.01,Wunderground v.1.15,2013-08-28 09:18:00,
2013-08-28 05:24:00,70.2,69.9,29.88,NNW,328,2.0,5.0,99,0.00,,,0.01,Wunderground v.1.15,2013-08-28 09:24:00,
2013-08-28 05:30:00,70.2,69.9,29.88,South,191,1.0,1.0,99,0.20,,,0.06,Wunderground v.1.15,2013-08-28 09:30:00,
2013-08-28 05:34:00,70.2,69.9,29.89,South,191,0.0,4.0,99,0.08,,,0.06,Wunderground v.1.15,2013-08-28 09:34:00,
2013-08-28 05:40:00,70.2,69.9,29.88,South,191,0.0,4.0,99,0.07,,,0.07,Wunderground v.1.15,2013-08-28 09:40:00,
2013-08-28 05:45:00,70.1,69.8,29.88,South,191,0.0,4.0,99,0.07,,,0.07,Wunderground v.1.15,2013-08-28 09:45:00,
2013-08-28 05:51:00,-999.9,-99.9,29.88,South,182,0.0,4.0,99,0.05,,,0.08,Wunderground v.1.15,2013-08-28 09:51:00,
2013-08-28 05:56:00,70.1,69.8,29.88,South,173,1.0,4.0,99,0.09,,,0.09,Wunderground v.1.15,2013-08-28 09:56:00,
2013-08-28 06:01:00,70.0,69.7,29.88,South,173,0.0,8.0,99,0.09,,,0.09,Wunderground v.1.15,2013-08-28 10:01:00,
2013-08-28 06:07:00,70.0,69.7,29.88,South,173,0.0,8.0,99,0.05,,,0.09,Wunderground v.1.15,2013-08-28 10:07:00,
2013-08-28 06:13:00,70.0,69.7,29.88,South,172,0.0,2.0,99,0.04,,,0.10,Wunderground v.1.15,2013-08-28 10:13:00,
2013-08-28 06:14:00,70.0,69.7,29.88,South,172,0.0,2.0,99,0.04,,,0.10,Wunderground v.1.15,2013-08-28 10:14:00,
2013-08-28 06:19:00,69.9,69.6,29.88,South,172,0.0,2.0,99,0.04,,,0.10,Wunderground v.1.15,2013-08-28 10:19:00,
2013-08-28 06:25:00,69.8,69.5,29.88,South,173,0.0,2.0,99,0.04,,,0.10,Wunderground v.1.15,2013-08-28 10:25:00,
2013-08-28 06:31:00,69.8,69.5,29.89,South,173,0.0,2.0,99,0.00,,,0.10,Wunderground v.1.15,2013-08-28 10:31:00,
2013-08-28 06:36:00,69.8,69.5,29.89,South,173,0.0,2.0,99,0.00,,,0.10,Wunderground v.1.15,2013-08-28 10:36:00,
2013-08-28 06:42:00,69.7,69.4,29.89,South,172,0.0,2.0,99,0.00,,,0.10,Wunderground v.1.15,2013-08-28 10:42:00,
2013-08-28 06:47:00,69.7,69.4,29.89,South,173,0.0,2.0,99,0.00,,,0.10,Wunderground v.1.15,2013-08-28 10:47:00,
2013-08-28 06:53:00,69.6,69.3,29.89,South,173,0.0,2.0,99,0.00,,,0.10,Wunderground v.1.15,2013-08-28 10:53:00,
2013-08-28 06:59:00,69.5,69.2,29.89,South,173,0.0,2.0,99,0.00,,,0.10,Wunderground v.1.15,2013-08-28 10:59:00,
2013-08-28 07:04:00,69.5,69.2,29.89,South,173,0.0,0.0,99,0.00,,,0.10,Wunderground v.1.15,2013-08-28 11:04:00,
2013-08-28 07:10:00,69.4,69.1,29.89,South,173,0.0,0.0,99,0.00,,,0.10,Wunderground v.1.15,2013-08-28 11:10:00,
2013-08-28 07:16:00,69.4,69.1,29.89,South,173,0.0,0.0,99,0.00,,,0.10,Wunderground v.1.15,2013-08-28 11:16:00,
2013-08-28 07:22:00,69.4,69.1,29.89,South,173,0.0,0.0,99,0.00,,,0.10,Wunderground v.1.15,2013-08-28 11:22:00,
2013-08-28 07:28:00,69.4,69.1,29.89,South,173,0.0,0.0,99,0.00,,,0.10,Wunderground v.1.15,2013-08-28 11:28:00,
2013-08-28 07:34:00,69.4,69.1,29.89,South,172,0.0,0.0,99,0.00,,,0.10,Wunderground v.1.15,2013-08-28 11:34:00,
2013-08-28 07:40:00,69.3,69.0,29.89,South,173,0.0,0.0,99,0.00,,,0.10,Wunderground v.1.15,2013-08-28 11:40:00,
2013-08-28 07:45:00,69.3,69.0,29.89,South,173,0.0,0.0,99,0.00,,,0.10,Wunderground v.1.15,2013-08-28 11:45:00,
2013-08-28 07:51:00,69.4,69.1,29.89,South,173,0.0,0.0,99,0.00,,,0.10,Wunderground v.1.15,2013-08-28 11:51:00,
2013-08-28 07:57:00,69.4,69.1,29.89,South,173,0.0,0.0,99,0.00,,,0.10,Wunderground v.1.15,2013-08-28 11:57:00,
2013-08-28 08:03:00,69.5,69.2,29.88,South,173,0.0,0.0,99,0.00,,,0.10,Wunderground v.1.15,2013-08-28 12:03:00,
2013-08-28 08:09:00,69.6,69.3,29.88,South,173,0.0,0.0,99,0.00,,,0.10,Wunderground v.1.15,2013-08-28 12:09:00,
2013-08-28 08:14:00,69.7,69.4,29.88,South,173,0.0,0.0,99,0.00,,,0.10,Wunderground v.1.15,2013-08-28 12:14:00,
2013-08-28 08:20:00,69.8,69.5,29.88,South,173,0.0,0.0,99,0.00,,,0.10,Wunderground v.1.15,2013-08-28 12:20:00,
2013-08-28 08:26:00,70.0,69.7,29.88,South,172,0.0,0.0,99,0.00,,,0.10,Wunderground v.1.15,2013-08-28 12:26:00,
2013-08-28 08:31:00,70.0,69.7,29.88,South,173,0.0,1.0,99,0.00,,,0.10,Wunderground v.1.15,2013-08-28 12:31:00,
2013-08-28 08:37:00,70.1,69.8,29.88,South,173,0.0,1.0,99,0.00,,,0.10,Wunderground v.1.15,2013-08-28 12:37:00,
2013-08-28 08:42:00,70.2,69.9,29.88,South,172,0.0,0.0,99,0.00,,,0.10,Wunderground v.1.15,2013-08-28 12:42:00,
2013-08-28 08:48:00,70.3,70.0,29.88,South,173,0.0,0.0,99,0.00,,,0.10,Wunderground v.1.15,2013-08-28 12:48:00,
2013-08-28 08:54:00,70.3,70.0,29.88,South,173,0.0,0.0,99,0.00,,,0.10,Wunderground v.1.15,2013-08-28 12:54:00,
2013-08-28 09:00:00,70.4,70.1,29.88,South,173,0.0,1.0,99,0.00,,,0.10,Wunderground v.1.15,2013-08-28 13:00:00,
2013-08-28 09:06:00,70.5,70.2,29.88,South,173,0.0,1.0,99,0.00,,,0.10,Wunderground v.1.15,2013-08-28 13:06:00,
2013-08-28 09:11:00,70.6,70.3,29.88,South,173,0.0,1.0,99,0.00,,,0.10,Wunderground v.1.15,2013-08-28 13:11:00,
2013-08-28 09:17:00,70.7,70.4,29.88,South,172,0.0,1.0,99,0.00,,,0.10,Wunderground v.1.15,2013-08-28 13:17:00,
2013-08-28 09:23:00,70.8,70.5,29.88,South,172,0.0,2.0,99,0.00,,,0.10,Wunderground v.1.15,2013-08-28 13:23:00,
2013-08-28 09:29:00,70.9,70.6,29.88,SSE,167,1.0,2.0,99,0.00,,,0.10,Wunderground v.1.15,2013-08-28 13:29:00,
2013-08-28 09:35:00,71.0,70.7,29.88,SSE,163,1.0,2.0,99,0.00,,,0.10,Wunderground v.1.15,2013-08-28 13:35:00,
2013-08-28 09:40:00,-999.9,-99.9,29.88,SSE,159,1.0,1.0,99,0.00,,,0.10,Wunderground v.1.15,2013-08-28 13:40:00,
2013-08-28 09:45:00,71.1,70.8,29.87,SSE,159,0.0,1.0,99,0.00,,,0.10,Wunderground v.1.15,2013-08-28 13:45:00,
2013-08-28 09:50:00,71.3,71.0,29.87,SE,127,1.0,1.0,99,0.00,,,0.10,Wunderground v.1.15,2013-08-28 13:50:00,
2013-08-28 09:56:00,71.4,71.1,29.87,SE,145,2.0,6.0,99,0.00,,,0.10,Wunderground v.1.15,2013-08-28 13:56:00,
2013-08-28 10:02:00,71.5,71.2,29.86,SE,144,2.0,4.0,99,0.00,,,0.10,Wunderground v.1.15,2013-08-28 14:02:00,
2013-08-28 10:07:00,71.7,71.4,29.86,SE,135,2.0,4.0,99,0.00,,,0.10,Wunderground v.1.15,2013-08-28 14:07:00,
2013-08-28 10:12:00,71.9,71.6,29.86,SSE,161,1.0,4.0,99,0.00,,,0.10,Wunderground v.1.15,2013-08-28 14:12:00,
2013-08-28 10:18:00,72.1,71.8,29.86,SE,124,1.0,4.0,99,0.00,,,0.10,Wunderground v.1.15,2013-08-28 14:18:00,
2013-08-28 10:23:00,72.3,72.0,29.86,ESE,121,1.0,4.0,99,0.00,,,0.10,Wunderground v.1.15,2013-08-28 14:23:00,
2013-08-28 10:29:00,72.7,72.4,29.86,ESE,121,0.0,4.0,99,0.00,,,0.10,Wunderground v.1.15,2013-08-28 14:29:00,
2013-08-28 10:35:00,72.9,72.6,29.86,SE,128,0.0,4.0,99,0.00,,,0.10,Wunderground v.1.15,2013-08-28 14:35:00,
2013-08-28 10:41:00,73.0,72.7,29.87,SE,136,0.0,4.0,99,0.00,,,0.11,Wunderground v.1.15,2013-08-28 14:41:00,
2013-08-28 10:46:00,73.0,72.7,29.87,SE,136,0.0,4.0,99,0.00,,,0.11,Wunderground v.1.15,2013-08-28 14:46:00,
2013-08-28 10:52:00,73.1,72.8,29.86,SE,136,0.0,4.0,99,0.00,,,0.11,Wunderground v.1.15,2013-08-28 14:52:00,
2013-08-28 10:58:00,73.2,72.9,29.86,SE,137,0.0,4.0,99,0.00,,,0.11,Wunderground v.1.15,2013-08-28 14:58:00,
2013-08-28 11:03:00,73.2,72.9,29.86,SSE,148,1.0,5.0,99,0.00,,,0.11,Wunderground v.1.15,2013-08-28 15:03:00,
2013-08-28 11:09:00,73.3,73.0,29.85,SE,141,1.0,5.0,99,0.00,,,0.11,Wunderground v.1.15,2013-08-28 15:09:00,
2013-08-28 11:15:00,74.2,73.9,29.85,ESE,113,2.0,5.0,99,0.00,,,0.11,Wunderground v.1.15,2013-08-28 15:15:00,
2013-08-28 11:20:00,74.4,74.1,29.85,East,88,1.0,1.0,99,0.00,,,0.11,Wunderground v.1.15,2013-08-28 15:20:00,
2013-08-28 11:26:00,-999.9,-99.9,29.85,ESE,110,0.0,5.0,255,0.00,,,0.11,Wunderground v.1.15,2013-08-28 15:26:00,
2013-08-28 11:32:00,-999.9,-99.9,29.86,ESE,121,0.0,5.0,255,0.00,,,0.11,Wunderground v.1.15,2013-08-28 15:32:00,
2013-08-28 11:37:00,74.7,-99.9,29.85,SE,125,0.0,5.0,255,0.00,,,0.11,Wunderground v.1.15,2013-08-28 15:37:00,
2013-08-28 11:43:00,-999.9,-99.9,29.85,ESE,109,0.0,5.0,255,0.00,,,0.11,Wunderground v.1.15,2013-08-28 15:43:00,
2013-08-28 11:48:00,74.8,-99.9,29.85,South,176,0.0,5.0,255,0.00,,,0.11,Wunderground v.1.15,2013-08-28 15:48:00,
2013-08-28 11:54:00,-999.9,-99.9,29.85,SSE,160,0.0,5.0,255,0.00,,,0.11,Wunderground v.1.15,2013-08-28 15:54:00,
2013-08-28 11:59:00,74.8,74.5,29.85,East,94,0.0,5.0,99,0.00,,,0.11,Wunderground v.1.15,2013-08-28 15:59:00,
2013-08-28 12:04:00,-999.9,-99.9,29.84,SSE,164,0.0,5.0,255,0.00,,,0.11,Wunderground v.1.15,2013-08-28 16:04:00,
2013-08-28 12:10:00,-999.9,-99.9,29.84,SSE,155,1.0,5.0,255,0.00,,,0.11,Wunderground v.1.15,2013-08-28 16:10:00,
2013-08-28 12:16:00,-999.9,-99.9,29.84,South,178,1.0,6.0,255,0.00,,,0.11,Wunderground v.1.15,2013-08-28 16:16:00,
2013-08-28 12:22:00,-999.9,-99.9,29.84,South,183,2.0,5.0,255,0.00,,,0.11,Wunderground v.1.15,2013-08-28 16:22:00,
2013-08-28 12:28:00,-999.9,-99.9,29.84,ESE,123,1.0,5.0,255,0.00,,,0.11,Wunderground v.1.15,2013-08-28 16:28:00,
2013-08-28 12:33:00,-999.9,-99.9,29.83,SE,132,1.0,5.0,255,0.00,,,0.11,Wunderground v.1.15,2013-08-28 16:33:00,
2013-08-28 12:39:00,-999.9,-99.9,29.83,South,174,2.0,10.0,255,0.00,,,0.11,Wunderground v.1.15,2013-08-28 16:39:00,
2013-08-28 12:45:00,-999.9,-99.9,29.84,SSE,167,2.0,5.0,255,0.00,,,0.11,Wunderground v.1.15,2013-08-28 16:45:00,
2013-08-28 12:51:00,-999.9,-99.9,29.83,SE,146,2.0,5.0,255,0.00,,,0.11,Wunderground v.1.15,2013-08-28 16:51:00,
2013-08-28 12:56:00,-999.9,-99.9,29.84,NW,321,1.0,5.0,255,0.00,,,0.11,Wunderground v.1.15,2013-08-28 16:56:00,
2013-08-28 13:01:00,-999.9,-99.9,29.83,ESE,104,1.0,9.0,255,0.00,,,0.11,Wunderground v.1.15,2013-08-28 17:01:00,
2013-08-28 13:07:00,-999.9,-99.9,29.83,South,178,1.0,9.0,255,0.00,,,0.11,Wunderground v.1.15,2013-08-28 17:07:00,
2013-08-28 13:12:00,-999.9,-99.9,29.83,East,83,1.0,9.0,255,0.00,,,0.11,Wunderground v.1.15,2013-08-28 17:12:00,
2013-08-28 13:18:00,-999.9,-99.9,29.83,South,180,1.0,9.0,255,0.00,,,0.11,Wunderground v.1.15,2013-08-28 17:18:00,
2013-08-28 13:24:00,-999.9,-99.9,29.83,ENE,68,0.0,9.0,255,0.00,,,0.11,Wunderground v.1.15,2013-08-28 17:24:00,
2013-08-28 13:30:00,-999.9,-99.9,29.83,South,174,1.0,1.0,255,0.00,,,0.11,Wunderground v.1.15,2013-08-28 17:30:00,
2013-08-28 13:36:00,-999.9,-99.9,29.83,ESE,123,1.0,9.0,255,0.00,,,0.11,Wunderground v.1.15,2013-08-28 17:36:00,
2013-08-28 13:42:00,-999.9,-99.9,29.82,SSE,161,2.0,9.0,255,0.00,,,0.11,Wunderground v.1.15,2013-08-28 17:42:00,
2013-08-28 13:47:00,-999.9,-99.9,29.83,SSE,163,2.0,9.0,255,0.00,,,0.11,Wunderground v.1.15,2013-08-28 17:47:00,
2013-08-28 13:53:00,-999.9,-99.9,29.83,SSE,153,1.0,9.0,255,0.00,,,0.11,Wunderground v.1.15,2013-08-28 17:53:00,
2013-08-28 13:59:00,-999.9,-99.9,29.83,NNW,341,1.0,9.0,255,0.00,,,0.11,Wunderground v.1.15,2013-08-28 17:59:00,
2013-08-28 14:04:00,-999.9,-99.9,29.83,South,169,1.0,4.0,255,0.00,,,0.11,Wunderground v.1.15,2013-08-28 18:04:00,
2013-08-28 14:09:00,-999.9,-99.9,29.83,South,169,1.0,4.0,255,0.00,,,0.11,Wunderground v.1.15,2013-08-28 18:09:00,
2013-08-28 14:15:00,-999.9,-99.9,29.82,SE,138,0.0,4.0,255,0.00,,,0.11,Wunderground v.1.15,2013-08-28 18:15:00,
2013-08-28 14:21:00,-999.9,-99.9,29.82,SSE,158,1.0,4.0,255,0.00,,,0.11,Wunderground v.1.15,2013-08-28 18:21:00,
2013-08-28 14:26:00,-999.9,-99.9,29.82,SE,125,0.0,4.0,255,0.00,,,0.11,Wunderground v.1.15,2013-08-28 18:26:00,
2013-08-28 14:32:00,-999.9,-99.9,29.82,SE,137,1.0,4.0,255,0.00,,,0.11,Wunderground v.1.15,2013-08-28 18:32:00,
2013-08-28 14:38:00,-999.9,-99.9,29.82,West,271,1.0,4.0,255,0.00,,,0.11,Wunderground v.1.15,2013-08-28 18:38:00,
2013-08-28 14:44:00,-999.9,-99.9,29.81,SSE,158,1.0,5.0,255,0.00,,,0.11,Wunderground v.1.15,2013-08-28 18:44:00,
2013-08-28 14:50:00,-999.9,-99.9,29.81,South,180,1.0,1.0,255,0.00,,,0.11,Wunderground v.1.15,2013-08-28 18:50:00,
2013-08-28 14:56:00,-999.9,-99.9,29.81,NW,309,1.0,4.0,255,0.00,,,0.11,Wunderground v.1.15,2013-08-28 18:56:00,
2013-08-28 15:01:00,-999.9,-99.9,29.81,NW,310,1.0,5.0,255,0.00,,,0.12,Wunderground v.1.15,2013-08-28 19:01:00,
2013-08-28 15:07:00,-999.9,-99.9,29.81,NW,310,0.0,5.0,255,0.13,,,0.14,Wunderground v.1.15,2013-08-28 19:07:00,
2013-08-28 15:13:00,-999.9,-99.9,29.81,NW,310,0.0,5.0,255,0.06,,,0.14,Wunderground v.1.15,2013-08-28 19:13:00,
2013-08-28 15:19:00,-999.9,-99.9,29.81,SSE,152,0.0,5.0,255,0.04,,,0.14,Wunderground v.1.15,2013-08-28 19:19:00,
2013-08-28 15:25:00,-999.9,-99.9,29.81,SSE,165,1.0,5.0,255,0.00,,,0.14,Wunderground v.1.15,2013-08-28 19:25:00,
2013-08-28 15:31:00,-999.9,-99.9,29.81,NW,318,0.0,5.0,255,0.00,,,0.14,Wunderground v.1.15,2013-08-28 19:31:00,
2013-08-28 15:37:00,-999.9,-99.9,29.81,NNW,340,1.0,5.0,255,0.00,,,0.14,Wunderground v.1.15,2013-08-28 19:37:00,
2013-08-28 15:42:00,-999.9,-99.9,29.81,NW,320,0.0,5.0,255,0.00,,,0.14,Wunderground v.1.15,2013-08-28 19:42:00,
2013-08-28 15:47:00,-999.9,-99.9,29.81,ENE,69,0.0,5.0,255,0.00,,,0.14,Wunderground v.1.15,2013-08-28 19:47:00,
2013-08-28 15:53:00,-999.9,-99.9,29.81,NNW,346,0.0,5.0,255,0.00,,,0.14,Wunderground v.1.15,2013-08-28 19:53:00,
2013-08-28 15:59:00,-999.9,-99.9,29.81,NW,326,1.0,5.0,255,0.00,,,0.14,Wunderground v.1.15,2013-08-28 19:59:00,
2013-08-28 16:04:00,-999.9,-99.9,29.81,NNW,327,0.0,5.0,255,0.00,,,0.14,Wunderground v.1.15,2013-08-28 20:04:00,
2013-08-28 16:09:00,-999.9,-99.9,29.81,North,360,1.0,5.0,255,0.00,,,0.14,Wunderground v.1.15,2013-08-28 20:09:00,
2013-08-28 16:15:00,-999.9,-99.9,29.81,NNE,22,1.0,5.0,255,0.00,,,0.14,Wunderground v.1.15,2013-08-28 20:15:00,
2013-08-28 16:21:00,-999.9,-99.9,29.81,NNE,20,1.0,1.0,255,0.00,,,0.14,Wunderground v.1.15,2013-08-28 20:21:00,
2013-08-28 16:27:00,-999.9,-99.9,29.81,NW,304,1.0,5.0,255,0.00,,,0.14,Wunderground v.1.15,2013-08-28 20:27:00,
2013-08-28 16:32:00,-999.9,-99.9,29.81,North,350,1.0,5.0,255,0.00,,,0.14,Wunderground v.1.15,2013-08-28 20:32:00,
2013-08-28 16:38:00,-999.9,-99.9,29.81,NW,317,1.0,5.0,255,0.00,,,0.14,Wunderground v.1.15,2013-08-28 20:38:00,
2013-08-28 16:43:00,-999.9,-99.9,29.81,NW,317,1.0,5.0,255,0.00,,,0.14,Wunderground v.1.15,2013-08-28 20:43:00,
2013-08-28 16:49:00,-999.9,-99.9,29.81,WNW,295,1.0,5.0,255,0.00,,,0.14,Wunderground v.1.15,2013-08-28 20:49:00,
2013-08-28 16:55:00,-999.9,-99.9,29.81,NNE,19,1.0,5.0,255,0.00,,,0.14,Wunderground v.1.15,2013-08-28 20:55:00,
2013-08-28 17:00:00,-999.9,-99.9,29.80,NW,306,1.0,1.0,255,0.00,,,0.14,Wunderground v.1.15,2013-08-28 21:00:00,
2013-08-28 17:06:00,-999.9,-99.9,29.80,NW,307,1.0,9.0,255,0.00,,,0.14,Wunderground v.1.15,2013-08-28 21:06:00,
2013-08-28 17:11:00,-999.9,-99.9,29.80,NW,307,0.0,9.0,255,0.00,,,0.14,Wunderground v.1.15,2013-08-28 21:11:00,
2013-08-28 17:16:00,-999.9,-99.9,29.80,NW,307,0.0,9.0,255,0.00,,,0.14,Wunderground v.1.15,2013-08-28 21:16:00,
2013-08-28 17:21:00,-999.9,-99.9,29.80,NW,307,0.0,9.0,255,0.00,,,0.14,Wunderground v.1.15,2013-08-28 21:21:00,
2013-08-28 17:27:00,-999.9,-99.9,29.79,NW,313,0.0,9.0,255,0.00,,,0.14,Wunderground v.1.15,2013-08-28 21:27:00,
2013-08-28 17:33:00,-999.9,-99.9,29.80,NW,310,0.0,9.0,255,0.00,,,0.14,Wunderground v.1.15,2013-08-28 21:33:00,
2013-08-28 17:39:00,-999.9,-99.9,29.80,NNW,330,1.0,9.0,255,0.00,,,0.14,Wunderground v.1.15,2013-08-28 21:39:00,
2013-08-28 17:45:00,-999.9,-99.9,29.80,NW,306,1.0,9.0,255,0.00,,,0.14,Wunderground v.1.15,2013-08-28 21:45:00,
2013-08-28 17:51:00,-999.9,-99.9,29.80,NW,306,1.0,9.0,255,0.00,,,0.14,Wunderground v.1.15,2013-08-28 21:51:00,
2013-08-28 17:57:00,-999.9,-99.9,29.81,WSW,254,0.0,9.0,255,0.00,,,0.14,Wunderground v.1.15,2013-08-28 21:57:00,
2013-08-28 18:03:00,-999.9,-99.9,29.81,WSW,254,0.0,3.0,255,0.00,,,0.14,Wunderground v.1.15,2013-08-28 22:03:00,
2013-08-28 18:09:00,-999.9,-99.9,29.81,WNW,284,0.0,3.0,255,0.00,,,0.15,Wunderground v.1.15,2013-08-28 22:09:00,
2013-08-28 18:15:00,-999.9,-99.9,29.80,WNW,294,0.0,3.0,255,0.00,,,0.15,Wunderground v.1.15,2013-08-28 22:15:00,
2013-08-28 18:21:00,-999.9,-99.9,29.80,WNW,293,0.0,3.0,255,0.00,,,0.15,Wunderground v.1.15,2013-08-28 22:21:00,
2013-08-28 18:27:00,-999.9,-99.9,29.80,NW,316,1.0,6.0,255,0.00,,,0.15,Wunderground v.1.15,2013-08-28 22:27:00,
2013-08-28 18:32:00,-999.9,-99.9,29.80,NW,316,1.0,3.0,255,0.00,,,0.15,Wunderground v.1.15,2013-08-28 22:32:00,
2013-08-28 18:38:00,-999.9,-99.9,29.80,NW,316,0.0,3.0,255,0.00,,,0.15,Wunderground v.1.15,2013-08-28 22:38:00,
2013-08-28 18:43:00,-999.9,-99.9,29.81,NW,317,0.0,3.0,255,0.00,,,0.15,Wunderground v.1.15,2013-08-28 22:43:00,
2013-08-28 18:49:00,-999.9,-99.9,29.80,West,271,0.0,3.0,94,0.00,,,0.15,Wunderground v.1.15,2013-08-28 22:49:00,
2013-08-28 18:55:00,-999.9,-99.9,29.81,West,271,0.0,3.0,94,0.00,,,0.15,Wunderground v.1.15,2013-08-28 22:55:00,
2013-08-28 19:00:00,-999.9,-99.9,29.81,West,271,0.0,7.0,94,0.00,,,0.15,Wunderground v.1.15,2013-08-28 23:00:00,
2013-08-28 19:05:00,78.4,76.5,29.81,West,271,0.0,7.0,94,0.00,,,0.15,Wunderground v.1.15,2013-08-28 23:05:00,
2013-08-28 19:11:00,-999.9,-99.9,29.81,West,271,0.0,7.0,95,0.00,,,0.15,Wunderground v.1.15,2013-08-28 23:11:00,
2013-08-28 19:16:00,-999.9,-99.9,29.81,West,271,0.0,7.0,95,0.00,,,0.15,Wunderground v.1.15,2013-08-28 23:16:00,
2013-08-28 19:22:00,77.5,75.6,29.81,ENE,70,0.0,7.0,94,0.00,,,0.15,Wunderground v.1.15,2013-08-28 23:22:00,
2013-08-28 19:27:00,77.2,75.3,29.81,NE,55,1.0,7.0,94,0.00,,,0.15,Wunderground v.1.15,2013-08-28 23:27:00,
2013-08-28 19:33:00,77.0,75.1,29.82,NE,55,0.0,7.0,94,0.00,,,0.15,Wunderground v.1.15,2013-08-28 23:33:00,
2013-08-28 19:39:00,76.8,74.9,29.82,NE,55,0.0,7.0,94,0.00,,,0.15,Wunderground v.1.15,2013-08-28 23:39:00,
2013-08-28 19:45:00,76.5,75.0,29.82,East,80,0.0,7.0,95,0.00,,,0.15,Wunderground v.1.15,2013-08-28 23:45:00,
2013-08-28 19:50:00,-999.9,-99.9,29.83,East,81,0.0,7.0,94,0.00,,,0.15,Wunderground v.1.15,2013-08-28 23:50:00,
2013-08-28 19:56:00,76.0,74.1,29.82,East,80,0.0,7.0,94,0.00,,,0.15,Wunderground v.1.15,2013-08-28 23:56:00,
2013-08-28 20:01:00,75.6,74.1,29.83,East,80,0.0,4.0,95,0.00,,,0.15,Wunderground v.1.15,2013-08-29 00:01:00,
2013-08-28 20:07:00,75.5,74.0,29.83,East,80,0.0,4.0,95,0.00,,,0.15,Wunderground v.1.15,2013-08-29 00:07:00,
2013-08-28 20:13:00,75.1,73.9,29.83,East,80,0.0,4.0,96,0.00,,,0.15,Wunderground v.1.15,2013-08-29 00:13:00,
2013-08-28 20:19:00,74.6,73.4,29.83,East,79,0.0,4.0,96,0.00,,,0.15,Wunderground v.1.15,2013-08-29 00:19:00,
2013-08-28 20:25:00,74.4,73.5,29.83,WNW,284,0.0,4.0,97,0.00,,,0.15,Wunderground v.1.15,2013-08-29 00:25:00,
2013-08-28 20:31:00,74.3,73.4,29.84,WNW,284,0.0,4.0,97,0.00,,,0.15,Wunderground v.1.15,2013-08-29 00:31:00,
2013-08-28 20:37:00,74.2,73.3,29.84,WNW,284,0.0,4.0,97,0.00,,,0.15,Wunderground v.1.15,2013-08-29 00:37:00,
2013-08-28 20:42:00,74.0,73.1,29.84,WNW,284,0.0,4.0,97,0.00,,,0.15,Wunderground v.1.15,2013-08-29 00:42:00,
2013-08-28 20:48:00,74.0,73.1,29.84,WNW,284,0.0,4.0,97,0.00,,,0.15,Wunderground v.1.15,2013-08-29 00:48:00,
2013-08-28 20:53:00,73.9,73.0,29.85,WNW,284,0.0,4.0,97,0.00,,,0.15,Wunderground v.1.15,2013-08-29 00:53:00,
2013-08-28 20:59:00,73.8,73.2,29.85,WNW,284,0.0,4.0,98,0.00,,,0.15,Wunderground v.1.15,2013-08-29 00:59:00,
2013-08-28 21:04:00,73.7,73.1,29.85,WNW,284,0.0,4.0,98,0.00,,,0.15,Wunderground v.1.15,2013-08-29 01:04:00,
2013-08-28 21:09:00,73.7,73.1,29.85,WNW,284,0.0,4.0,98,0.00,,,0.15,Wunderground v.1.15,2013-08-29 01:09:00,
2013-08-28 21:15:00,73.5,72.9,29.85,WNW,284,0.0,4.0,98,0.00,,,0.15,Wunderground v.1.15,2013-08-29 01:15:00,
2013-08-28 21:21:00,73.4,72.8,29.86,WNW,284,0.0,4.0,98,0.00,,,0.15,Wunderground v.1.15,2013-08-29 01:21:00,
2013-08-28 21:27:00,73.3,72.7,29.86,WNW,286,0.0,4.0,98,0.00,,,0.15,Wunderground v.1.15,2013-08-29 01:27:00,
2013-08-28 21:33:00,73.2,72.6,29.86,WNW,286,0.0,4.0,98,0.00,,,0.15,Wunderground v.1.15,2013-08-29 01:33:00,
2013-08-28 21:38:00,73.1,72.8,29.86,WNW,286,0.0,4.0,99,0.00,,,0.15,Wunderground v.1.15,2013-08-29 01:38:00,
2013-08-28 21:43:00,73.1,72.8,29.86,WNW,286,0.0,4.0,99,0.00,,,0.15,Wunderground v.1.15,2013-08-29 01:43:00,
2013-08-28 21:49:00,73.0,72.7,29.86,WNW,286,0.0,4.0,99,0.00,,,0.15,Wunderground v.1.15,2013-08-29 01:49:00,
2013-08-28 21:55:00,73.0,72.7,29.87,WNW,286,0.0,4.0,99,0.00,,,0.15,Wunderground v.1.15,2013-08-29 01:55:00,
2013-08-28 22:00:00,72.9,72.6,29.87,WNW,286,0.0,4.0,99,0.00,,,0.15,Wunderground v.1.15,2013-08-29 02:00:00,
2013-08-28 22:06:00,72.8,72.5,29.87,WNW,286,0.0,4.0,99,0.00,,,0.15,Wunderground v.1.15,2013-08-29 02:06:00,
2013-08-28 22:12:00,72.8,72.5,29.87,WNW,286,0.0,4.0,99,0.00,,,0.15,Wunderground v.1.15,2013-08-29 02:12:00,
2013-08-28 22:18:00,72.7,72.4,29.87,WNW,286,0.0,4.0,99,0.00,,,0.15,Wunderground v.1.15,2013-08-29 02:18:00,
2013-08-28 22:23:00,72.6,72.3,29.87,North,11,1.0,6.0,99,0.00,,,0.15,Wunderground v.1.15,2013-08-29 02:23:00,
2013-08-28 22:28:00,72.5,72.2,29.87,West,259,1.0,6.0,99,0.00,,,0.15,Wunderground v.1.15,2013-08-29 02:28:00,
2013-08-28 22:34:00,72.4,72.1,29.88,West,260,0.0,4.0,99,0.00,,,0.15,Wunderground v.1.15,2013-08-29 02:34:00,
2013-08-28 22:40:00,72.3,72.0,29.88,West,260,0.0,4.0,99,0.00,,,0.15,Wunderground v.1.15,2013-08-29 02:40:00,
2013-08-28 22:46:00,72.3,72.0,29.88,West,260,0.0,4.0,99,0.00,,,0.15,Wunderground v.1.15,2013-08-29 02:46:00,
2013-08-28 22:51:00,72.2,71.9,29.88,West,272,0.0,4.0,99,0.00,,,0.15,Wunderground v.1.15,2013-08-29 02:51:00,
2013-08-28 22:56:00,72.1,71.8,29.88,West,272,0.0,4.0,99,0.00,,,0.15,Wunderground v.1.15,2013-08-29 02:56:00,
2013-08-28 23:02:00,72.0,71.7,29.88,West,276,0.0,8.0,99,0.00,,,0.15,Wunderground v.1.15,2013-08-29 03:02:00,
2013-08-28 23:08:00,71.9,71.6,29.89,West,276,0.0,8.0,99,0.00,,,0.15,Wunderground v.1.15,2013-08-29 03:08:00,
2013-08-28 23:14:00,71.8,71.5,29.89,West,276,0.0,8.0,99,0.00,,,0.15,Wunderground v.1.15,2013-08-29 03:14:00,
2013-08-28 23:20:00,71.7,71.4,29.89,West,276,0.0,8.0,99,0.00,,,0.15,Wunderground v.1.15,2013-08-29 03:20:00,
2013-08-28 23:26:00,71.7,71.4,29.89,West,276,0.0,8.0,99,0.00,,,0.15,Wunderground v.1.15,2013-08-29 03:26:00,
2013-08-28 23:31:00,71.6,71.3,29.89,West,276,0.0,8.0,99,0.00,,,0.15,Wunderground v.1.15,2013-08-29 03:31:00,
2013-08-28 23:37:00,71.5,71.2,29.89,West,276,0.0,8.0,99,0.00,,,0.15,Wunderground v.1.15,2013-08-29 03:37:00,
2013-08-28 23:43:00,71.5,71.2,29.89,West,276,0.0,8.0,99,0.00,,,0.15,Wunderground v.1.15,2013-08-29 03:43:00,
2013-08-28 23:48:00,71.4,71.1,29.89,West,276,0.0,8.0,99,0.00,,,0.15,Wunderground v.1.15,2013-08-29 03:48:00,
2013-08-28 23:54:00,71.3,71.0,29.89,West,276,0.0,8.0,99,0.00,,,0.15,Wunderground v.1.15,2013-08-29 03:54:00,
2013-08-28 23:59:00,71.3,71.0,29.89,West,276,0.0,8.0,99,0.00,,,0.15,Wunderground v.1.15,2013-08-29 03:59:00,